Tracking 19717 objects as of 25-Jun-2019
HD Live streaming from Space Station
objects crossing your sky now

IRS P6

Track IRS P6 now!
10-day predictions
IRS P6 is classified as:


NORAD ID: 28051
Int'l Code: 2003-046A
Perigee: 743.3 km
Apogee: 826.7 km
Inclination: 98.5 °
Period: 100.4 minutes
Semi major axis: 7156 km
RCS: 5.9386 m2 (large)
Launch date: October 17, 2003
Source: India (IND)
Launch site: SRIHARIKOTA (SRI)

Monitor agricultural, land, and water resources.
aabbcc
Your satellite tracking list
Your tracking list is empty




NASA's NSSDC Master Catalog

Two Line Element Set (TLE):
1 28051U 03046A   19176.24178639 -.00000014  00000-0  10318-4 0  9996
2 28051  98.5174 253.7884 0058246  10.2020 350.0345 14.34152520815044
Source of the keplerian elements: AFSPC